[[{"header":{"parameterUnit":"m.s-1","parameterCategory":1,"la1":30.2991,"la2":30.254,"lo1":-89.0895,"lo2":-89.0444,"dy":0.0017,"dx":0.0017,"nx":28,"ny":28,"refTime":"2024-08-10T09:00:00:Z","depth":0,"parameterNumber":2,"parameterNumberName":"U-component_of_WINDS"},"data":[0,0,0,0,0,0,0,0,0,0,0,0,0,0,0,0,0,0,0,0,0,0,0,0,0,0,0,0,0,0,0,0,0,0,0,0,0,0,0,0,0,0,0,0,0,0,0,0,0,0,0,0,0,0,0,0,0,0,0.0797,0.0799,0,0.0984,0.0987,0.0989,0.1026,0.1024,0.1023,0.1021,0.122,0.1226,0.1233,0,0,0,0,0,0,0,0,0,0,0,0,0,0.0475,0.0481,0.0797,0.0799,0.0801,0.0984,0.0987,0.0989,0.1026,0.1024,0.1022,0.1021,0.1218,0.1225,0.1233,0,0,0,0,0,0,0,0,0,0,0,0,0,0.0634,0.0482,0.0796,0.0841,0.0847,0.0984,0.0987,0.099,0.1026,0.1024,0.1022,0.102,0.1215,0.1225,0.1235,0.1341,0,0,0.1265,0.1269,0,0,0,0,0,0,0,0,0.0625,0.0646,0.0833,0.0839,0.0845,0.0979,0.0946,0.1108,0.1027,0.0959,0.1021,0.1019,0.1142,0.1158,0.1198,0.135,0.1359,0.1266,0.1272,0.1276,0.1279,0,0,0,0,0,0,0,0.0614,0.0638,0.0871,0.0835,0.0843,0.0854,0.0874,0.0977,0.1061,0.0964,0.0967,0.0989,0.1145,0.1188,0.1203,0.1362,0.1266,0.1275,0.1281,0.1285,0.1609,0.1612,0,0,0,0,0,0,0.0594,0.0628,0.0865,0.0877,0.0727,0.0862,0.0884,0.0939,0.106,0.1076,0.099,0.099,0.1172,0.1191,0.121,0.1342,0.1276,0.1286,0.1291,0.1607,0.161,0.1613,0,0,0,0,0,0,0.0587,0.0615,0.0858,0.0754,0.0785,0.0869,0.093,0.0944,0.0987,0.1079,0.1095,0.1019,0.1171,0.1196,0.1307,0.1349,0.129,0.1299,0.1604,0.1608,0.1611,0.1606,0,0,0,0,0,0,0.0577,0.0612,0.0652,0.0754,0.0791,0.095,0.0933,0.0949,0.1003,0.1004,0.111,0.1126,0.1172,0.1292,0.1317,0.1362,0.1307,0.16,0.1605,0.161,0.1603,0.1609,0.1615,0,0,0,0,0,0.0566,0.0645,0.0654,0.0682,0.0842,0.0953,0.0974,0.1023,0.1006,0.1048,0.1107,0.1122,0.134,0.1303,0.1332,0.138,0.1598,0.1604,0.161,0.16,0.1608,0.1615,0,0,0,0,0,0,0.0549,0.0659,0.0671,0.0785,0.0858,0.0958,0.1013,0.103,0.1112,0.111,0.1169,0.1193,0.1301,0.1352,0.1308,0.1489,0.1468,0.148,0.1451,0.146,0.1465,0.1451,0.1315,0,0,0,0,0,0.0558,0.0636,0.0729,0.0821,0.0857,0.0928,0.0978,0.1009,0.109,0.1122,0.1189,0.1268,0.1354,0.141,0.1494,0.161,0.1634,0.1657,0.1663,0.1668,0.1677,0.1742,0.1753,0.1632,0.1632,0.1632,0,0,0.0578,0.0648,0.0695,0.0819,0.088,0.0961,0.0955,0.1042,0.1103,0.1136,0.1244,0.1296,0.1388,0.1501,0.1555,0.1547,0.1716,0.1675,0.1678,0.1686,0.1749,0.176,0.177,0.1636,0.1635,0.1635,0,0,0.0656,0.0717,0.08,0.086,0.0951,0.0998,0.1017,0.1115,0.115,0.1259,0.1285,0.1359,0.1506,0.157,0.1622,0.1722,0.1739,0.1748,0.1779,0.1841,0.1851,0.1859,0.1894,0.1906,0.1757,0.1757,0.1757,0,0.0671,0.0792,0.084,0.0925,0.0979,0.101,0.1094,0.1151,0.1267,0.1304,0.1293,0.1477,0.1541,0.1669,0.1693,0.1734,0.1759,0.1736,0.1845,0.1854,0.1863,0.1897,0.191,0.1758,0.1758,0.1758,0.1758,0,0.0805,0.0889,0.0945,0.1052,0.1113,0.1197,0.1259,0.1314,0.134,0.1388,0.1498,0.1575,0.1675,0.1708,0.1735,0.184,0.1832,0.1833,0.1813,0.1874,0.1907,0.1921,0.1758,0.1758,0.1758,0.1758,0,0,0.0879,0.101,0.103,0.1078,0.118,0.1247,0.1332,0.1428,0.1474,0.1552,0.1626,0.1748,0.1748,0.1807,0.1841,0.1895,0.1968,0.1889,0.1892,0.1901,0.2088,0.2087,0.2101,0.198,0.1982,0.1985,0.208,0,0.097,0.1121,0.1166,0.1293,0.1371,0.1401,0.1475,0.1547,0.1593,0.1667,0.172,0.1805,0.1799,0.1834,0.1889,0.1948,0.2007,0.1942,0.205,0.2053,0.2025,0.2119,0.2118,0.2205,0.2093,0.2096,0.2097,0,0.1095,0.1172,0.1307,0.1397,0.1432,0.1498,0.1588,0.1658,0.1739,0.1769,0.1833,0.1862,0.1954,0.1928,0.2055,0.201,0.2057,0.2092,0.2096,0.2108,0.2079,0.2133,0.2234,0.2246,0.2118,0.2117,0.2115,0,0.1135,0.1273,0.137,0.1411,0.1519,0.1565,0.1612,0.1691,0.1745,0.1825,0.186,0.195,0.1999,0.2068,0.2121,0.2098,0.2243,0.2223,0.2271,0.227,0.2301,0.2298,0.241,0.2331,0.2331,0.2331,0.2331,0,0.1231,0.1312,0.1389,0.1449,0.1541,0.1592,0.1682,0.1732,0.1801,0.1872,0.1905,0.1971,0.2037,0.2112,0.2154,0.2252,0.2275,0.2302,0.2312,0.2299,0.2295,0.2331,0.2326,0.2334,0.2334,0.2333,0.2332,0,0.129,0.1346,0.1454,0.1546,0.1572,0.1635,0.1715,0.1775,0.1822,0.1911,0.1936,0.201,0.21,0.2159,0.2276,0.2304,0.241,0.2419,0.2382,0.2387,0.2432,0.2426,0.257,0.2591,0.2498,0.2499,0.25,0,0.1348,0.141,0.1508,0.1557,0.1604,0.1682,0.1736,0.179,0.1845,0.1941,0.199,0.2081,0.2157,0.23,0.2366,0.2454,0.2466,0.251,0.2479,0.2463,0.2465,0.2461,0.2467,0.2515,0.2515,0.2516,0.2516,0,0.1443,0.1467,0.1542,0.1627,0.169,0.1761,0.1831,0.187,0.1935,0.1996,0.2087,0.2145,0.2262,0.2353,0.2447,0.2498,0.2518,0.2525,0.2541,0.2528,0.2503,0.2516,0.2395,0.2522,0.2521,0.2521,0.2521,0.252,0.1503,0.1559,0.1637,0.172,0.1777,0.1842,0.1902,0.1955,0.2032,0.2129,0.2156,0.2251,0.233,0.2458,0.251,0.2586,0.2582,0.2605,0.2611,0.2615,0.2615,0.2491,0.2604,0.2604,0.2604,0.2604,0.2604,0,0.16,0.165,0.1726,0.1822,0.1887,0.1898,0.1976,0.203,0.2113,0.2184,0.2257,0.2361,0.2449,0.252,0.261,0.2657,0.2669,0.2679,0.2676,0.2687,0.2615,0.2591,0.2668,0.2668,0.2668,0.2668,0.2668,0.2668,0.1657,0.1753,0.1785,0.1909,0.196,0.2051,0.2095,0.2155,0.2211,0.2325,0.2397,0.2442,0.2514,0.2609,0.269,0.2709,0.274,0.2749,0.2769,0.27,0.2693,0.2686,0.2664,0.2755,0.2755,0.2836,0.2837,0.2837]},{"header":{"parameterUnit":"m.s-1","parameterCategory":1,"la1":30.2991,"la2":30.254,"lo1":-89.0895,"lo2":-89.0444,"dy":0.0017,"dx":0.0017,"nx":28,"ny":28,"refTime":"2024-08-10T09:00:00:Z","depth":0,"parameterNumber":3,"parameterNumberName":"V-component_of_WINDS"},"data":[0,0,0,0,0,0,0,0,0,0,0,0,0,0,0,0,0,0,0,0,0,0,0,0,0,0,0,0,0,0,0,0,0,0,0,0,0,0,0,0,0,0,0,0,0,0,0,0,0,0,0,0,0,0,0,0,0,0,1.1515,1.1515,0,1.1545,1.1546,1.1546,1.1453,1.145,1.1447,1.1444,1.1478,1.1481,1.1485,0,0,0,0,0,0,0,0,0,0,0,0,0,1.1375,1.1378,1.1515,1.1515,1.1515,1.1545,1.1546,1.1546,1.1453,1.145,1.1446,1.1443,1.1477,1.1481,1.1485,0,0,0,0,0,0,0,0,0,0,0,0,0,1.1424,1.1379,1.1515,1.1473,1.1469,1.1545,1.1546,1.1546,1.1454,1.145,1.1446,1.1442,1.1475,1.1481,1.1486,1.1605,0,0,1.1502,1.1504,0,0,0,0,0,0,0,0,1.1421,1.1429,1.1478,1.1476,1.1472,1.1491,1.1509,1.1566,1.1455,1.146,1.1444,1.1439,1.1486,1.149,1.1505,1.1606,1.1608,1.1503,1.1506,1.1508,1.151,0,0,0,0,0,0,0,1.1418,1.1427,1.1527,1.1479,1.1475,1.1452,1.1454,1.1519,1.1497,1.1459,1.1452,1.1457,1.1483,1.15,1.1505,1.1608,1.1502,1.1507,1.1511,1.1513,1.1801,1.1806,0,0,0,0,0,0,1.142,1.1425,1.1526,1.1528,1.1435,1.1458,1.146,1.1489,1.1496,1.1492,1.1461,1.1453,1.1493,1.1499,1.1506,1.164,1.1508,1.1513,1.1516,1.1797,1.1802,1.1807,0,0,0,0,0,0,1.1417,1.143,1.1525,1.1475,1.1485,1.1465,1.1498,1.1492,1.1509,1.1497,1.1492,1.1482,1.149,1.1499,1.1579,1.1641,1.1516,1.152,1.1792,1.1799,1.1805,1.1913,0,0,0,0,0,0,1.1414,1.1429,1.1475,1.1476,1.1488,1.1598,1.1502,1.1496,1.1518,1.1508,1.1516,1.1513,1.1488,1.1572,1.1585,1.1646,1.1525,1.1786,1.1795,1.1803,1.1904,1.1923,1.1939,0,0,0,0,0,1.1409,1.1506,1.1478,1.149,1.1544,1.1602,1.1608,1.1576,1.1524,1.1568,1.156,1.1513,1.1633,1.1581,1.1594,1.1658,1.1782,1.1792,1.1802,1.1896,1.1919,1.1939,0,0,0,0,0,0,1.1514,1.1505,1.1474,1.1574,1.1589,1.1586,1.1641,1.1602,1.1633,1.1622,1.1582,1.1584,1.1671,1.1673,1.1616,1.177,1.1698,1.1711,1.1765,1.1787,1.1804,1.18,1.1529,0,0,0,0,0,1.1549,1.1596,1.1586,1.1676,1.1684,1.1662,1.1686,1.1659,1.1673,1.1679,1.1677,1.1693,1.1733,1.1761,1.1798,1.1905,1.1903,1.1955,1.1973,1.1987,1.1998,1.2049,1.2071,1.184,1.184,1.184,0,0,1.1622,1.1622,1.1655,1.1697,1.1705,1.1753,1.1668,1.1724,1.1759,1.1688,1.1762,1.1761,1.1776,1.1869,1.191,1.1873,1.2061,1.2,1.2012,1.2014,1.2062,1.2084,1.2103,1.1847,1.1846,1.1845,0,0,1.1777,1.1785,1.1856,1.1866,1.1878,1.1862,1.188,1.1881,1.1877,1.1951,1.1897,1.1939,1.2011,1.2021,1.2036,1.2192,1.2148,1.2206,1.2296,1.2346,1.2364,1.238,1.2431,1.245,1.2217,1.2218,1.2218,0,1.1865,1.1935,1.1899,1.1957,1.1975,1.1912,1.1983,1.1995,1.202,1.2033,1.1992,1.2077,1.2084,1.2175,1.2212,1.2229,1.2245,1.2203,1.2365,1.238,1.2394,1.2442,1.2462,1.2224,1.2223,1.2223,1.2222,0,1.2041,1.209,1.2147,1.2169,1.2195,1.226,1.2232,1.2262,1.2233,1.222,1.2294,1.2299,1.2333,1.2354,1.2328,1.2441,1.2417,1.2372,1.2297,1.2423,1.2467,1.2486,1.2233,1.2231,1.2229,1.2228,0,0,1.2263,1.2262,1.2283,1.2289,1.2298,1.2335,1.2396,1.2428,1.2452,1.2472,1.2519,1.258,1.2536,1.2553,1.2528,1.2573,1.2689,1.2521,1.252,1.2548,1.2808,1.2839,1.2861,1.2662,1.2665,1.2668,1.2805,0,1.2412,1.2514,1.2481,1.2584,1.2626,1.2566,1.2618,1.2628,1.2618,1.2652,1.2642,1.2683,1.2625,1.2634,1.2676,1.2666,1.274,1.2657,1.2703,1.2705,1.2696,1.2885,1.2918,1.3048,1.2823,1.2826,1.2828,0,1.2599,1.2621,1.2727,1.2723,1.274,1.2787,1.2811,1.2846,1.2855,1.2844,1.2862,1.2826,1.2883,1.2812,1.2889,1.2832,1.285,1.2848,1.2852,1.2851,1.2771,1.2885,1.3089,1.3106,1.2856,1.2853,1.2851,0,1.2743,1.2801,1.287,1.2879,1.2877,1.2911,1.2912,1.2917,1.2937,1.2959,1.297,1.3,1.3015,1.3038,1.301,1.2961,1.3089,1.3017,1.3079,1.308,1.3106,1.3104,1.331,1.3126,1.3125,1.3125,1.3124,0,1.2909,1.2976,1.2934,1.2976,1.3047,1.3009,1.3081,1.3076,1.308,1.3119,1.3071,1.3109,1.3071,1.3106,1.3085,1.3149,1.3158,1.3148,1.3141,1.315,1.315,1.3158,1.3146,1.313,1.3129,1.3128,1.3127,0,1.3082,1.3057,1.3127,1.3119,1.3118,1.3171,1.3163,1.3201,1.3187,1.3237,1.3246,1.3224,1.3261,1.3236,1.3275,1.3261,1.3343,1.3326,1.3339,1.3332,1.3394,1.3387,1.3609,1.3634,1.3438,1.344,1.3442,0,1.3187,1.3236,1.3231,1.3252,1.3255,1.3292,1.3311,1.3275,1.3296,1.3308,1.3344,1.3377,1.3401,1.3463,1.345,1.3478,1.3459,1.3535,1.3462,1.3468,1.3453,1.3449,1.3451,1.3548,1.355,1.3552,1.3554,0,1.3375,1.3359,1.3387,1.341,1.3432,1.3449,1.3462,1.3483,1.3447,1.3473,1.3509,1.3527,1.3565,1.3596,1.3619,1.362,1.358,1.3577,1.3592,1.3599,1.3602,1.3596,1.3373,1.3571,1.3569,1.3568,1.3567,1.3566,1.3513,1.3551,1.3552,1.3583,1.3589,1.3601,1.3634,1.3623,1.3652,1.3677,1.3656,1.3698,1.3703,1.3728,1.3734,1.3766,1.3735,1.3758,1.3763,1.3768,1.3774,1.3601,1.3771,1.377,1.377,1.3769,1.3769,0,1.3693,1.369,1.372,1.3737,1.3761,1.3721,1.3732,1.3755,1.3792,1.3799,1.3822,1.3862,1.3892,1.3881,1.3907,1.3934,1.3916,1.3942,1.3937,1.3937,1.3803,1.3785,1.3955,1.3955,1.3955,1.3955,1.3955,1.3955,1.379,1.385,1.3834,1.3895,1.3892,1.3931,1.394,1.395,1.3955,1.4001,1.4024,1.4016,1.4015,1.404,1.4065,1.4061,1.4071,1.4102,1.4091,1.3965,1.3947,1.3929,1.3911,1.4106,1.4106,1.4221,1.4222,1.4223]}]]